Time,TemperatureF,DewpointF,PressureIn,WindDirection,WindDirectionDegrees,WindSpeedMPH,WindSpeedGustMPH,Humidity,HourlyPrecipIn,Conditions,Clouds,dailyrainin,SoftwareType,DateUTC
2013-03-15 00:14:00,33.2,27.0,30.14,North,350,0.0,2.0,78,0.00,,,0.00,weatherlink.com 1.10,2013-03-15 05:14:00,
2013-03-15 00:29:00,33.8,27.0,30.14,North,350,0.0,2.0,77,0.00,,,0.00,weatherlink.com 1.10,2013-03-15 05:29:00,
2013-03-15 00:44:00,33.5,27.0,30.13,North,350,0.0,1.0,78,0.00,,,0.00,weatherlink.com 1.10,2013-03-15 05:44:00,
2013-03-15 00:59:00,33.0,27.0,30.12,North,350,0.0,1.0,79,0.00,,,0.00,weatherlink.com 1.10,2013-03-15 05:59:00,
2013-03-15 01:14:00,32.5,27.0,30.12,North,350,0.0,0.0,81,0.00,,,0.00,weatherlink.com 1.10,2013-03-15 06:14:00,
2013-03-15 01:29:00,32.0,27.0,30.12,North,350,0.0,0.0,82,0.00,,,0.00,weatherlink.com 1.10,2013-03-15 06:29:00,
2013-03-15 01:44:00,31.6,28.0,30.12,North,350,0.0,1.0,85,0.00,,,0.00,weatherlink.com 1.10,2013-03-15 06:44:00,
2013-03-15 01:59:00,31.1,27.0,30.12,North,350,0.0,0.0,86,0.00,,,0.00,weatherlink.com 1.10,2013-03-15 06:59:00,
2013-03-15 02:15:00,30.8,27.0,30.11,North,350,0.0,0.0,87,0.00,,,0.00,weatherlink.com 1.10,2013-03-15 07:15:00,
2013-03-15 02:29:00,30.5,27.0,30.10,North,350,0.0,0.0,87,0.00,,,0.00,weatherlink.com 1.10,2013-03-15 07:29:00,
2013-03-15 02:44:00,30.2,27.0,30.10,North,350,0.0,0.0,88,0.00,,,0.00,weatherlink.com 1.10,2013-03-15 07:44:00,
2013-03-15 02:59:00,30.1,27.0,30.09,North,350,0.0,0.0,89,0.00,,,0.00,weatherlink.com 1.10,2013-03-15 07:59:00,
2013-03-15 03:14:00,30.0,27.0,30.09,North,350,0.0,0.0,89,0.00,,,0.00,weatherlink.com 1.10,2013-03-15 08:14:00,
2013-03-15 03:29:00,29.8,27.0,30.08,North,350,0.0,0.0,89,0.00,,,0.00,weatherlink.com 1.10,2013-03-15 08:29:00,
2013-03-15 03:44:00,29.8,27.0,30.07,North,350,0.0,0.0,90,0.00,,,0.00,weatherlink.com 1.10,2013-03-15 08:44:00,
2013-03-15 03:59:00,29.6,27.0,30.07,North,350,0.0,0.0,90,0.00,,,0.00,weatherlink.com 1.10,2013-03-15 08:59:00,
2013-03-15 04:14:00,29.5,27.0,30.06,North,350,0.0,0.0,91,0.00,,,0.00,weatherlink.com 1.10,2013-03-15 09:14:00,
2013-03-15 04:29:00,29.3,27.0,30.07,North,350,0.0,0.0,91,0.00,,,0.00,weatherlink.com 1.10,2013-03-15 09:29:00,
2013-03-15 04:44:00,29.3,27.0,30.06,North,350,0.0,0.0,91,0.00,,,0.00,weatherlink.com 1.10,2013-03-15 09:44:00,
2013-03-15 04:59:00,29.2,27.0,30.06,North,350,0.0,0.0,92,0.00,,,0.00,weatherlink.com 1.10,2013-03-15 09:59:00,
2013-03-15 05:14:00,29.0,27.0,30.06,North,350,0.0,0.0,92,0.00,,,0.00,weatherlink.com 1.10,2013-03-15 10:14:00,
2013-03-15 05:29:00,28.9,27.0,30.05,North,350,0.0,0.0,92,0.00,,,0.00,weatherlink.com 1.10,2013-03-15 10:29:00,
2013-03-15 05:44:00,28.7,27.0,30.05,North,350,0.0,0.0,92,0.00,,,0.00,weatherlink.com 1.10,2013-03-15 10:44:00,
2013-03-15 05:59:00,28.7,27.0,30.05,North,350,0.0,0.0,93,0.00,,,0.00,weatherlink.com 1.10,2013-03-15 10:59:00,
2013-03-15 06:14:00,28.8,27.0,30.05,North,350,0.0,0.0,93,0.00,,,0.00,weatherlink.com 1.10,2013-03-15 11:14:00,
2013-03-15 06:29:00,29.2,28.0,30.04,North,350,0.0,0.0,94,0.00,,,0.00,weatherlink.com 1.10,2013-03-15 11:29:00,
2013-03-15 06:44:00,29.9,28.0,30.05,North,350,0.0,0.0,94,0.00,,,0.00,weatherlink.com 1.10,2013-03-15 11:44:00,
2013-03-15 06:59:00,30.3,29.0,30.05,North,350,0.0,0.0,94,0.00,,,0.00,weatherlink.com 1.10,2013-03-15 11:59:00,
2013-03-15 07:14:00,30.3,29.0,30.04,North,350,0.0,0.0,94,0.00,,,0.00,weatherlink.com 1.10,2013-03-15 12:14:00,
2013-03-15 07:30:00,30.6,29.0,30.05,North,350,0.0,0.0,94,0.00,,,0.00,weatherlink.com 1.10,2013-03-15 12:30:00,
2013-03-15 07:45:00,31.5,30.0,30.04,North,350,0.0,0.0,95,0.00,,,0.00,weatherlink.com 1.10,2013-03-15 12:45:00,
2013-03-15 08:00:00,33.9,33.0,30.04,NNE,12,0.0,2.0,96,0.00,,,0.00,weatherlink.com 1.10,2013-03-15 13:00:00,
2013-03-15 08:15:00,38.6,37.0,30.04,SE,132,1.0,2.0,94,0.00,,,0.00,weatherlink.com 1.10,2013-03-15 13:15:00,
2013-03-15 08:30:00,44.4,40.0,30.05,SE,138,2.0,5.0,84,0.00,,,0.00,weatherlink.com 1.10,2013-03-15 13:30:00,
2013-03-15 08:45:00,47.9,41.0,30.05,SE,126,3.0,6.0,77,0.00,,,0.00,weatherlink.com 1.10,2013-03-15 13:45:00,
2013-03-15 09:00:00,49.6,42.0,30.04,ESE,121,2.0,7.0,74,0.00,,,0.00,weatherlink.com 1.10,2013-03-15 14:00:00,
2013-03-15 09:15:00,51.6,42.0,30.04,SE,134,5.0,7.0,70,0.00,,,0.00,weatherlink.com 1.10,2013-03-15 14:15:00,
2013-03-15 09:30:00,53.3,43.0,30.03,SE,132,5.0,8.0,67,0.00,,,0.00,weatherlink.com 1.10,2013-03-15 14:30:00,
2013-03-15 09:45:00,54.3,42.0,30.03,ESE,111,4.0,9.0,64,0.00,,,0.00,weatherlink.com 1.10,2013-03-15 14:45:00,
2013-03-15 10:00:00,55.7,44.0,30.03,SE,128,6.0,10.0,64,0.00,,,0.00,weatherlink.com 1.10,2013-03-15 15:00:00,
2013-03-15 10:15:00,57.5,44.0,30.02,ESE,109,4.0,9.0,61,0.00,,,0.00,weatherlink.com 1.10,2013-03-15 15:15:00,
2013-03-15 10:30:00,58.6,44.0,30.02,East,101,2.0,13.0,59,0.00,,,0.00,weatherlink.com 1.10,2013-03-15 15:30:00,
2013-03-15 10:45:00,59.2,44.0,30.01,ESE,108,4.0,9.0,58,0.00,,,0.00,weatherlink.com 1.10,2013-03-15 15:45:00,
2013-03-15 11:00:00,60.6,46.0,30.01,ESE,113,5.0,11.0,58,0.00,,,0.00,weatherlink.com 1.10,2013-03-15 16:00:00,
2013-03-15 11:15:00,62.2,47.0,30.01,SE,135,8.0,13.0,57,0.00,,,0.00,weatherlink.com 1.10,2013-03-15 16:15:00,
2013-03-15 11:30:00,63.6,45.0,30.00,ESE,110,6.0,12.0,52,0.00,,,0.00,weatherlink.com 1.10,2013-03-15 16:30:00,
2013-03-15 11:46:00,63.4,46.0,29.99,SE,124,6.0,10.0,53,0.00,,,0.00,weatherlink.com 1.10,2013-03-15 16:46:00,
2013-03-15 12:01:00,64.7,46.0,29.99,ESE,122,7.0,11.0,52,0.00,,,0.00,weatherlink.com 1.10,2013-03-15 17:01:00,
2013-03-15 12:31:00,66.8,47.0,29.97,ENE,72,3.0,12.0,50,0.00,,,0.00,weatherlink.com 1.10,2013-03-15 17:31:00,
2013-03-15 13:31:00,70.1,50.0,29.95,SE,138,8.0,11.0,49,0.00,,,0.00,weatherlink.com 1.10,2013-03-15 18:31:00,
2013-03-15 13:46:00,70.1,49.0,29.95,ESE,111,7.0,14.0,47,0.00,,,0.00,weatherlink.com 1.10,2013-03-15 18:46:00,
2013-03-15 14:01:00,70.5,49.0,29.94,SSE,147,7.0,15.0,46,0.00,,,0.00,weatherlink.com 1.10,2013-03-15 19:01:00,
2013-03-15 14:16:00,71.4,49.0,29.93,SE,127,6.0,11.0,46,0.00,,,0.00,weatherlink.com 1.10,2013-03-15 19:16:00,
2013-03-15 14:31:00,71.7,49.0,29.92,NE,55,7.0,16.0,45,0.00,,,0.00,weatherlink.com 1.10,2013-03-15 19:31:00,
2013-03-15 14:46:00,71.4,49.0,29.91,East,90,4.0,13.0,45,0.00,,,0.00,weatherlink.com 1.10,2013-03-15 19:46:00,
2013-03-15 15:01:00,72.2,50.0,29.89,SE,140,8.0,11.0,45,0.00,,,0.00,weatherlink.com 1.10,2013-03-15 20:01:00,
2013-03-15 15:16:00,72.6,49.0,29.88,ESE,113,5.0,10.0,44,0.00,,,0.00,weatherlink.com 1.10,2013-03-15 20:16:00,
2013-03-15 15:31:00,73.1,50.0,29.88,East,82,3.0,14.0,44,0.00,,,0.00,weatherlink.com 1.10,2013-03-15 20:31:00,
2013-03-15 15:46:00,72.7,49.0,29.87,ESE,118,4.0,10.0,44,0.00,,,0.00,weatherlink.com 1.10,2013-03-15 20:46:00,
2013-03-15 16:01:00,74.1,49.0,29.86,ESE,104,8.0,16.0,42,0.00,,,0.00,weatherlink.com 1.10,2013-03-15 21:01:00,
2013-03-15 16:16:00,74.0,49.0,29.86,SE,129,7.0,12.0,42,0.00,,,0.00,weatherlink.com 1.10,2013-03-15 21:16:00,
2013-03-15 16:32:00,74.0,51.0,29.85,SE,126,4.0,16.0,44,0.00,,,0.00,weatherlink.com 1.10,2013-03-15 21:32:00,
2013-03-15 16:47:00,74.0,50.0,29.85,SE,130,6.0,13.0,43,0.00,,,0.00,weatherlink.com 1.10,2013-03-15 21:47:00,
2013-03-15 17:02:00,73.7,50.0,29.85,ESE,112,4.0,11.0,43,0.00,,,0.00,weatherlink.com 1.10,2013-03-15 22:02:00,
2013-03-15 17:17:00,73.6,51.0,29.84,ESE,117,2.0,11.0,45,0.00,,,0.00,weatherlink.com 1.10,2013-03-15 22:17:00,
2013-03-15 17:32:00,72.9,51.0,29.83,ENE,72,7.0,8.0,46,0.00,,,0.00,weatherlink.com 1.10,2013-03-15 22:32:00,
2013-03-15 17:47:00,72.0,51.0,29.83,East,82,2.0,5.0,48,0.00,,,0.00,weatherlink.com 1.10,2013-03-15 22:47:00,
2013-03-15 18:02:00,71.2,50.0,29.83,ESE,103,3.0,9.0,47,0.00,,,0.00,weatherlink.com 1.10,2013-03-15 23:02:00,
2013-03-15 18:17:00,70.8,50.0,29.82,ESE,115,1.0,7.0,48,0.00,,,0.00,weatherlink.com 1.10,2013-03-15 23:17:00,
2013-03-15 18:32:00,70.3,50.0,29.82,East,95,1.0,3.0,49,0.00,,,0.00,weatherlink.com 1.10,2013-03-15 23:32:00,
2013-03-15 18:47:00,69.4,50.0,29.82,East,95,1.0,1.0,51,0.00,,,0.00,weatherlink.com 1.10,2013-03-15 23:47:00,
2013-03-15 19:02:00,68.0,50.0,29.82,ENE,67,0.0,3.0,53,0.00,,,0.00,weatherlink.com 1.10,2013-03-16 00:02:00,
2013-03-15 19:17:00,67.5,50.0,29.82,ENE,72,0.0,5.0,54,0.00,,,0.00,weatherlink.com 1.10,2013-03-16 00:17:00,
2013-03-15 19:32:00,68.0,50.0,29.82,ESE,107,5.0,8.0,52,0.00,,,0.00,weatherlink.com 1.10,2013-03-16 00:32:00,
2013-03-15 19:47:00,68.7,49.0,29.81,ESE,118,6.0,9.0,50,0.00,,,0.00,weatherlink.com 1.10,2013-03-16 00:47:00,
2013-03-15 20:02:00,68.6,49.0,29.81,NE,45,7.0,8.0,50,0.00,,,0.00,weatherlink.com 1.10,2013-03-16 01:02:00,
2013-03-15 20:17:00,68.3,50.0,29.81,ESE,108,4.0,10.0,52,0.00,,,0.00,weatherlink.com 1.10,2013-03-16 01:17:00,
2013-03-15 20:32:00,67.8,50.0,29.81,ENE,77,4.0,8.0,53,0.00,,,0.00,weatherlink.com 1.10,2013-03-16 01:32:00,
2013-03-15 20:47:00,67.3,50.0,29.80,East,82,2.0,7.0,54,0.00,,,0.00,weatherlink.com 1.10,2013-03-16 01:47:00,
2013-03-15 21:02:00,67.0,51.0,29.81,ENE,77,2.0,10.0,56,0.00,,,0.00,weatherlink.com 1.10,2013-03-16 02:02:00,
2013-03-15 21:17:00,66.9,51.0,29.80,East,88,5.0,10.0,56,0.00,,,0.00,weatherlink.com 1.10,2013-03-16 02:17:00,
2013-03-15 22:17:00,66.8,51.0,29.81,East,97,4.0,9.0,57,0.00,,,0.00,weatherlink.com 1.10,2013-03-16 03:17:00,
2013-03-15 22:32:00,66.4,51.0,29.81,ESE,118,3.0,10.0,58,0.00,,,0.00,weatherlink.com 1.10,2013-03-16 03:32:00,
2013-03-15 22:47:00,66.0,51.0,29.81,SE,132,9.0,10.0,58,0.00,,,0.00,weatherlink.com 1.10,2013-03-16 03:47:00,
2013-03-15 23:02:00,65.8,51.0,29.80,ESE,116,5.0,12.0,59,0.00,,,0.00,weatherlink.com 1.10,2013-03-16 04:02:00,
2013-03-15 23:17:00,65.4,51.0,29.80,NE,55,5.0,10.0,59,0.00,,,0.00,weatherlink.com 1.10,2013-03-16 04:17:00,
2013-03-15 23:32:00,65.2,50.0,29.79,ESE,109,4.0,12.0,59,0.00,,,0.00,weatherlink.com 1.10,2013-03-16 04:32:00,
2013-03-15 23:47:00,64.9,51.0,29.79,ESE,110,8.0,10.0,60,0.00,,,0.00,weatherlink.com 1.10,2013-03-16 04:47:00,